| time (UTC) | temp C | wind direction | speed KPH | gust KPH | rain 1hr cm | rain 24hr cm | rain mn cm | humidity % | barometer mb |
| 20260504173109 | 25 | 251 | 37.0 | 49.9 | 0.00 | 0.00 | 0.00 | 38 | 999.7 |
| 20260504171605 | 25 | 238 | 29.0 | 49.9 | 0.00 | 0.00 | 0.00 | 40 | 999.8 |
| 20260504081558 | 7 | 155 | 3.2 | 8.0 | 0.00 | 0.00 | 0.00 | 74 | 1004.4 |
| 20260504044557 | 13 | 279 | 3.2 | 4.8 | 0.00 | 0.00 | 0.00 | 54 | 1006.9 |
| 20260504043059 | 13 | 279 | 1.6 | 3.2 | 0.00 | 0.00 | 0.00 | 54 | 1006.9 |
| 20260504041552 | 12 | 0 | 0.0 | 0.0 | 0.00 | 0.00 | 0.00 | 55 | 1006.9 |
| 20260504040058 | 13 | 0 | 0.0 | 3.2 | 0.00 | 0.00 | 0.00 | 53 | 1007.1 |
| 20260504034606 | 13 | 0 | 0.0 | 0.0 | 0.00 | 0.00 | 0.00 | 52 | 1007.2 |
| 20260504033055 | 14 | 279 | 0.0 | 6.4 | 0.00 | 0.00 | 0.00 | 50 | 1007.3 |
| 20260504031554 | 15 | 279 | 3.2 | 6.4 | 0.00 | 0.00 | 0.00 | 47 | 1007.2 |
| 20260504030056 | 15 | 279 | 1.6 | 4.8 | 0.00 | 0.00 | 0.00 | 48 | 1007.2 |
| 20260504024556 | 15 | 279 | 0.0 | 6.4 | 0.00 | 0.00 | 0.00 | 48 | 1007.1 |
| 20260504023055 | 16 | 279 | 4.8 | 9.7 | 0.00 | 0.00 | 0.00 | 44 | 1007.0 |
| 20260504021554 | 17 | 279 | 1.6 | 11.3 | 0.00 | 0.00 | 0.00 | 43 | 1006.9 |
| 20260504020115 | 17 | 282 | 6.4 | 11.3 | 0.00 | 0.00 | 0.00 | 40 | 1006.8 |
| 20260504014558 | 18 | 273 | 9.7 | 12.9 | 0.00 | 0.00 | 0.00 | 39 | 1006.6 |
| 20260504013110 | 17 | 273 | 9.7 | 12.9 | 0.00 | 0.00 | 0.00 | 39 | 1006.5 |
| 20260504011553 | 18 | 273 | 9.7 | 12.9 | 0.00 | 0.00 | 0.00 | 40 | 1006.3 |
| 20260504010055 | 18 | 281 | 11.3 | 14.5 | 0.00 | 0.00 | 0.00 | 41 | 1006.2 |
| 20260504004552 | 19 | 290 | 12.9 | 16.1 | 0.00 | 0.00 | 0.00 | 38 | 1006.1 |
| 20260504003050 | 20 | 289 | 14.5 | 20.9 | 0.00 | 0.00 | 0.00 | 35 | 1006.1 |
| 20260504001554 | 21 | 291 | 17.7 | 24.1 | 0.00 | 0.00 | 0.00 | 34 | 1006.0 |
| 20260504000058 | 21 | 296 | 19.3 | 29.0 | 0.00 | 0.00 | 0.00 | 32 | 1006.0 |
| 20260503234552 | 22 | 276 | 22.5 | 32.2 | 0.00 | 0.00 | 0.00 | 30 | 1005.8 |
| 20260503233054 | 22 | 298 | 25.7 | 38.6 | 0.00 | 0.00 | 0.00 | 31 | 1006.0 |
| 20260503231552 | 22 | 271 | 25.7 | 38.6 | 0.00 | 0.00 | 0.00 | 31 | 1005.9 |
| 20260503230051 | 22 | 317 | 25.7 | 37.0 | 0.00 | 0.00 | 0.00 | 30 | 1005.8 |
| 20260503224559 | 22 | 298 | 27.4 | 43.5 | 0.00 | 0.00 | 0.00 | 30 | 1005.8 |
| 20260503223054 | 23 | 280 | 25.7 | 41.8 | 0.00 | 0.00 | 0.00 | 27 | 1005.6 |
| 20260503221603 | 23 | 287 | 25.7 | 43.5 | 0.00 | 0.00 | 0.00 | 32 | 1005.5 |
| 20260503220057 | 23 | 296 | 25.7 | 38.6 | 0.00 | 0.00 | 0.00 | 33 | 1005.6 |
| 20260503214553 | 23 | 267 | 30.6 | 48.3 | 0.00 | 0.00 | 0.00 | 29 | 1005.4 |
| 20260503213053 | 23 | 303 | 30.6 | 40.2 | 0.00 | 0.00 | 0.00 | 32 | 1005.6 |
| 20260503211550 | 23 | 286 | 25.7 | 45.1 | 0.00 | 0.00 | 0.00 | 34 | 1005.4 |
| 20260503210053 | 23 | 285 | 29.0 | 46.7 | 0.00 | 0.00 | 0.00 | 34 | 1005.6 |
| 20260503204611 | 23 | 317 | 25.7 | 45.1 | 0.00 | 0.00 | 0.00 | 31 | 1005.9 |
| 20260503203057 | 23 | 263 | 27.4 | 41.8 | 0.00 | 0.00 | 0.00 | 34 | 1005.9 |
| 20260503201553 | 23 | 311 | 32.2 | 46.7 | 0.00 | 0.00 | 0.00 | 34 | 1005.9 |
| 20260503200054 | 22 | 263 | 25.7 | 51.5 | 0.00 | 0.00 | 0.00 | 32 | 1006.0 |
| 20260503194557 | 22 | 286 | 38.6 | 49.9 | 0.00 | 0.00 | 0.00 | 34 | 1006.1 |
| 20260503193059 | 22 | 275 | 30.6 | 46.7 | 0.00 | 0.00 | 0.00 | 37 | 1006.3 |
| 20260503191608 | 22 | 259 | 19.3 | 43.5 | 0.00 | 0.00 | 0.00 | 43 | 1006.5 |
| 20260503190051 | 21 | 269 | 25.7 | 43.5 | 0.00 | 0.00 | 0.00 | 44 | 1006.7 |
| 20260503184600 | 21 | 248 | 27.4 | 48.3 | 0.00 | 0.00 | 0.00 | 43 | 1006.8 |
| 20260503183057 | 20 | 272 | 30.6 | 49.9 | 0.00 | 0.00 | 0.00 | 45 | 1007.0 |
| 20260503181555 | 20 | 248 | 27.4 | 41.8 | 0.00 | 0.00 | 0.00 | 44 | 1007.1 |
| 20260503180100 | 19 | 246 | 30.6 | 45.1 | 0.00 | 0.00 | 0.00 | 45 | 1007.4 |
| 20260503174554 | 18 | 252 | 27.4 | 43.5 | 0.00 | 0.00 | 0.00 | 47 | 1007.6 |